Texico, NM

8:45 AM MST on January 19, 2017 (GMT -0700)
Clovis Municipal

Weather History for KCVN - January, 2013

Change the Weather History Date:

Sunday, January 20, 2013

  Actual Average Record
Temperature  
Mean Temperature 43 °F -  
Max Temperature 62 °F 51 °F 76 °F (1986)
Min Temperature 24 °F 23 °F -3 °F (1963)
Degree Days  
Heating Degree Days 22    
Moisture  
Dew Point 15 °F    
Average Humidity 40    
Maximum Humidity 69    
Minimum Humidity 14    
Precipitation  
Precipitation 0.00 in - - ()
Sea Level Pressure  
Sea Level Pressure 30.20 in    
Wind  
Wind Speed 10 mph (NW)    
Max Wind Speed 22 mph    
Max Gust Speed 25 mph    
Visibility 10 miles    
Events      
Averages and records for this station are not official NWS values.
T = Trace of Precipitation, MM = Missing Value Source: NWS Daily Summary

Daily Weather History Graph

Daily Weather History Graph

Search for Another Location

Airport or City:

Trip Planner

Search our weather history database for the weather conditions in past years. The results will help you decide how hot, cold, wet, or windy it might be!

Date:

Astronomy

Jan. 20, 2013 Rise Set
Actual Time 6:56 AM MST 5:10 PM MST
Civil Twilight 6:29 AM MST 5:37 PM MST
Nautical Twilight 5:59 AM MST 6:08 PM MST
Astronomical Twilight 5:29 AM MST 6:38 PM MST
Moon 12:12 PM MST (1/20) 1:32 AM MST (1/20)
Length of Visible Light 11h 07m
Length of Day
10h 13m
Waxing Gibbous, 67% of the Moon is Illuminated
Jan 20
Waxing Gibbous
Jan 26
Full
Feb 3
Last Quarter
Feb 10
New
Feb 17
First Quarter

Hourly Weather History & Observations

Time (MST) Temp. Windchill Dew Point Humidity Pressure Visibility Wind Dir Wind Speed Gust Speed Precip Events Conditions
12:15 AM 26.6 °F 21.2 °F 14.0 °F 59% 30.29 in 10.0 mi NNE 4.6 mph - N/A   Clear
12:35 AM 26.6 °F 20.0 °F 14.0 °F 59% 30.29 in 10.0 mi NW 5.8 mph - N/A   Clear
12:55 AM 28.4 °F 23.3 °F 15.8 °F 59% 30.28 in 10.0 mi NNW 4.6 mph - N/A   Clear
1:15 AM 28.4 °F 24.6 °F 14.0 °F 55% 30.28 in 10.0 mi NW 3.5 mph - N/A   Clear
1:35 AM 26.6 °F 21.2 °F 14.0 °F 59% 30.28 in 10.0 mi NNW 4.6 mph - N/A   Clear
1:55 AM 26.6 °F 20.0 °F 14.0 °F 59% 30.28 in 10.0 mi NW 5.8 mph - N/A   Clear
2:15 AM 26.6 °F 19.1 °F 15.8 °F 64% 30.29 in 10.0 mi NW 6.9 mph - N/A   Clear
2:35 AM 26.6 °F 19.1 °F 14.0 °F 59% 30.28 in 10.0 mi WNW 6.9 mph - N/A   Clear
2:55 AM 26.6 °F 19.1 °F 12.2 °F 55% 30.27 in 10.0 mi NW 6.9 mph - N/A   Clear
3:15 AM 26.6 °F 19.1 °F 14.0 °F 59% 30.27 in 10.0 mi WNW 6.9 mph - N/A   Clear
3:35 AM 24.8 °F 17.9 °F 14.0 °F 64% 30.26 in 10.0 mi NW 5.8 mph - N/A   Clear
3:55 AM 24.8 °F 16.9 °F 14.0 °F 64% 30.25 in 10.0 mi NW 6.9 mph - N/A   Clear
4:15 AM 26.6 °F 19.1 °F 15.8 °F 64% 30.25 in 10.0 mi NW 6.9 mph - N/A   Clear
4:35 AM 24.8 °F 16.9 °F 15.8 °F 69% 30.24 in 10.0 mi WNW 6.9 mph - N/A   Clear
4:55 AM 26.6 °F 19.1 °F 15.8 °F 64% 30.24 in 10.0 mi NW 6.9 mph - N/A   Clear
5:15 AM 24.8 °F 16.9 °F 14.0 °F 64% 30.23 in 10.0 mi WNW 6.9 mph - N/A   Clear
5:35 AM 24.8 °F 15.3 °F 15.8 °F 69% 30.23 in 10.0 mi WNW 9.2 mph - N/A   Clear
5:55 AM 26.6 °F 18.2 °F 15.8 °F 64% 30.23 in 10.0 mi WNW 8.1 mph - N/A   Clear
6:15 AM 24.8 °F 16.9 °F 14.0 °F 64% 30.23 in 10.0 mi West 6.9 mph - N/A   Clear
6:35 AM 24.8 °F 16.9 °F 12.2 °F 59% 30.23 in 10.0 mi West 6.9 mph - N/A   Clear
6:55 AM 24.8 °F 16.1 °F 12.2 °F 59% 30.23 in 10.0 mi West 8.1 mph - N/A   Clear
7:15 AM 26.6 °F 19.1 °F 14.0 °F 59% 30.23 in 10.0 mi West 6.9 mph - N/A   Clear
7:35 AM 28.4 °F 21.2 °F 15.8 °F 59% 30.23 in 10.0 mi West 6.9 mph - N/A   Clear
7:55 AM 30.2 °F 26.7 °F 17.6 °F 60% 30.23 in 10.0 mi West 3.5 mph - N/A   Clear
8:15 AM 37.4 °F 32.1 °F 19.4 °F 48% 30.22 in 10.0 mi WSW 6.9 mph - N/A   Clear
8:35 AM 39.2 °F 32.5 °F 19.4 °F 45% 30.22 in 10.0 mi WSW 10.4 mph - N/A   Clear
8:55 AM 42.8 °F 36.6 °F 17.6 °F 36% 30.22 in 10.0 mi WSW 11.5 mph - N/A   Clear
9:15 AM 44.6 °F 37.8 °F 17.6 °F 34% 30.22 in 10.0 mi WSW 15.0 mph - N/A   Clear
9:35 AM 48.2 °F - 17.6 °F 30% 30.22 in 10.0 mi WSW 15.0 mph - N/A   Clear
9:55 AM 50.0 °F - 17.6 °F 28% 30.22 in 10.0 mi WSW 15.0 mph - N/A   Clear
10:15 AM 51.8 °F - 19.4 °F 28% 30.21 in 10.0 mi SW 17.3 mph - N/A   Clear
10:35 AM 53.6 °F - 17.6 °F 24% 30.20 in 10.0 mi SW 18.4 mph - N/A   Clear
10:55 AM 53.6 °F - 17.6 °F 24% 30.19 in 10.0 mi SW 17.3 mph - N/A   Clear
11:15 AM 55.4 °F - 19.4 °F 25% 30.18 in 10.0 mi SW 17.3 mph - N/A   Clear
11:35 AM 57.2 °F - 19.4 °F 23% 30.16 in 10.0 mi WSW 18.4 mph 25.3 mph N/A   Clear
11:55 AM 59.0 °F - 17.6 °F 20% 30.15 in 10.0 mi WSW 17.3 mph - N/A   Clear
12:15 PM 60.8 °F - 15.8 °F 17% 30.13 in 10.0 mi WSW 19.6 mph 23.0 mph N/A   Clear
12:35 PM 60.8 °F - 15.8 °F 17% 30.12 in 10.0 mi WSW 19.6 mph 24.2 mph N/A   Clear
12:55 PM 60.8 °F - 14.0 °F 16% 30.11 in 10.0 mi WSW 18.4 mph - N/A   Clear
1:15 PM 60.8 °F - 14.0 °F 16% 30.10 in 10.0 mi WSW 15.0 mph 21.9 mph N/A   Clear
1:35 PM 62.6 °F - 14.0 °F 15% 30.10 in 10.0 mi WSW 17.3 mph 23.0 mph N/A   Clear
1:55 PM 62.6 °F - 14.0 °F 15% 30.10 in 10.0 mi West 18.4 mph 23.0 mph N/A   Clear
2:15 PM 62.6 °F - 14.0 °F 15% 30.10 in 10.0 mi West 15.0 mph - N/A   Clear
2:35 PM 62.6 °F - 14.0 °F 15% 30.09 in 10.0 mi WNW 17.3 mph - N/A   Clear
2:55 PM 62.6 °F - 14.0 °F 15% 30.10 in 10.0 mi WNW 19.6 mph - N/A   Clear
3:15 PM 62.6 °F - 14.0 °F 15% 30.10 in 10.0 mi WNW 12.7 mph - N/A   Clear
3:35 PM 62.6 °F - 12.2 °F 14% 30.11 in 10.0 mi North 20.7 mph - N/A   Clear
3:55 PM 60.8 °F - 10.4 °F 14% 30.11 in 10.0 mi North 18.4 mph - N/A   Clear
4:15 PM 60.8 °F - 10.4 °F 14% 30.12 in 10.0 mi NNE 21.9 mph 25.3 mph N/A   Clear
4:35 PM 57.2 °F - 10.4 °F 16% 30.13 in 10.0 mi NNE 19.6 mph - N/A   Clear
4:55 PM 53.6 °F - 10.4 °F 18% 30.14 in 10.0 mi NNE 16.1 mph - N/A   Clear
5:15 PM 51.8 °F - 8.6 °F 18% 30.15 in 10.0 mi NNE 13.8 mph - N/A   Clear
5:35 PM 46.4 °F 41.1 °F 8.6 °F 22% 30.16 in 10.0 mi North 11.5 mph - N/A   Clear
5:55 PM 44.6 °F 38.1 °F 10.4 °F 25% 30.16 in 10.0 mi North 13.8 mph - N/A   Clear
6:15 PM 44.6 °F 36.9 °F 10.4 °F 25% 30.17 in 10.0 mi NNE 18.4 mph - N/A   Clear
6:35 PM 42.8 °F 35.4 °F 10.4 °F 27% 30.17 in 10.0 mi NNE 15.0 mph - N/A   Clear
6:55 PM 42.8 °F 36.6 °F 10.4 °F 27% 30.18 in 10.0 mi North 11.5 mph - N/A   Clear
7:15 PM 39.2 °F 31.6 °F 10.4 °F 31% 30.19 in 10.0 mi North 12.7 mph - N/A   Clear
7:35 PM 37.4 °F 29.3 °F 12.2 °F 36% 30.19 in 10.0 mi North 12.7 mph - N/A   Clear
7:55 PM 37.4 °F 29.8 °F 12.2 °F 36% 30.20 in 10.0 mi North 11.5 mph - N/A   Clear
8:15 PM 35.6 °F 27.5 °F 12.2 °F 38% 30.21 in 10.0 mi North 11.5 mph - N/A   Clear
8:35 PM 35.6 °F 27.5 °F 15.8 °F 44% 30.21 in 10.0 mi North 11.5 mph - N/A   Clear
8:55 PM 35.6 °F 27.1 °F 14.0 °F 41% 30.22 in 10.0 mi North 12.7 mph - N/A   Clear
9:15 PM 33.8 °F 24.3 °F 14.0 °F 44% 30.23 in 10.0 mi North 13.8 mph - N/A   Clear
9:35 PM 35.6 °F 25.9 °F 15.8 °F 44% 30.23 in 10.0 mi North 16.1 mph - N/A   Clear
9:55 PM 33.8 °F 23.5 °F 14.0 °F 44% 30.23 in 10.0 mi North 16.1 mph - N/A   Clear
10:15 PM 33.8 °F 23.9 °F 17.6 °F 52% 30.23 in 10.0 mi North 15.0 mph - N/A   Clear
10:35 PM 33.8 °F 23.5 °F 15.8 °F 48% 30.23 in 10.0 mi North 16.1 mph - N/A   Clear
10:55 PM 33.8 °F 22.8 °F 15.8 °F 48% 30.23 in 10.0 mi North 18.4 mph - N/A   Clear
11:15 PM 33.8 °F 22.8 °F 17.6 °F 52% 30.24 in 10.0 mi North 18.4 mph - N/A   Clear
11:35 PM 33.8 °F 22.2 °F 17.6 °F 52% 30.24 in 10.0 mi North 20.7 mph - N/A   Clear
11:55 PM 32.0 °F 20.5 °F 19.4 °F 60% 30.24 in 10.0 mi North 18.4 mph - N/A   Clear